User: anonymous   Login
Location: Unspecified
(0.0000°N, 0.0000°E)
Time: 20:52:29
(UTC+00:00)
Language:

DSP F5R - Orbit

View from above orbital plane
View from above orbital plane
View from above satellite
View from above satellite

Ground track
Ground track

The orbit data is extracted from the following two-line orbital elements,

1 18583U 87097A   18111.83218490 0.00000000  00000-0  00000-0 0    06
2 18583  14.4250   0.0147 0023166 210.9535 148.9219  0.98386645    01
Epoch (UTC): 21 April 2018 19:58:20
Eccentricity: 0.0023166
inclination: 14.4250°
perigee height: 36224 km
apogee height: 36422 km
right ascension of ascending node: 0.0147°
argument of perigee: 210.9535°
revolutions per day: 0.98386645
mean anomaly at epoch: 148.9219°
orbit number at epoch: 0

The dashed part of the orbit path shows where the satellite is in the earth's shadow,  

DLR